KW0MSP Weather Reports


Display with metric or nautical units.
time (UTC)temp
F
wind
direction
speed
MPH
gust
MPH
rain 1hr
in
rain 24hr
in
rain mn
in
humidity
%
barometer
mb
20260502233528 68 256 3.0 9.0 0.00 0.00 0.00 22 1011.0
20260502232525 68 243 3.0 9.0 0.00 0.00 0.00 22 1011.1
20260502231521 68 242 3.0 8.0 0.00 0.00 0.00 22 1011.1
20260502230518 68 270 2.0 9.0 0.00 0.00 0.00 23 1011.3
20260502225550 68 274 1.0 3.0 0.00 0.00 0.00 22 1011.4
20260502224526 67 231 2.0 6.0 0.00 0.00 0.00 22 1011.5
20260502223522 67 245 2.0 4.0 0.00 0.00 0.00 22 1011.7
20260502222519 68 238 4.0 11.0 0.00 0.00 0.00 21 1012.0
20260502221516 68 275 3.0 7.0 0.00 0.00 0.00 21 1011.9
20260502220547 69 230 4.0 9.0 0.00 0.00 0.00 21 1012.1
20260502215545 69 308 2.0 5.0 0.00 0.00 0.00 21 1012.3
20260502214521 68 252 5.0 14.0 0.00 0.00 0.00 21 1012.3
20260502213518 69 314 3.0 8.0 0.00 0.00 0.00 21 1012.5
20260502212530 69 285 3.0 10.0 0.00 0.00 0.00 20 1012.6
20260502211526 70 295 4.0 8.0 0.00 0.00 0.00 20 1012.9
20260502210522 70 282 3.0 11.0 0.00 0.00 0.00 20 1013.0
20260502205519 69 219 5.0 11.0 0.00 0.00 0.00 20 1013.3
20260502204516 69 202 4.0 10.0 0.00 0.00 0.00 21 1013.6
20260502203527 68 260 2.0 8.0 0.00 0.00 0.00 22 1013.7
20260502202524 68 265 4.0 11.0 0.00 0.00 0.00 21 1013.9
20260502201520 68 216 5.0 11.0 0.00 0.00 0.00 21 1014.3
20260502200532 69 224 5.0 15.0 0.00 0.00 0.00 20 1014.4
20260502195543 69 224 3.0 10.0 0.00 0.00 0.00 20 1014.6
20260502194519 67 267 3.0 6.0 0.00 0.00 0.00 22 1014.8
20260502193515 68 274 4.0 13.0 0.00 0.00 0.00 21 1015.1
20260502192527 68 241 4.0 11.0 0.00 0.00 0.00 20 1015.2
20260502191524 68 238 4.0 11.0 0.00 0.00 0.00 21 1015.5
20260502190521 67 225 4.0 8.0 0.00 0.00 0.00 22 1015.7
20260502185517 66 262 4.0 8.0 0.00 0.00 0.00 22 1015.9
20260502184529 66 289 4.0 14.0 0.00 0.00 0.00 23 1016.1
20260502183526 65 266 3.0 8.0 0.00 0.00 0.00 23 1016.3
20260502182543 66 282 3.0 7.0 0.00 0.00 0.00 22 1016.4
20260502181519 66 235 3.0 8.0 0.00 0.00 0.00 22 1016.6
20260502180536 66 250 6.0 13.0 0.00 0.00 0.00 22 1016.8
20260502163515 61 219 4.0 8.0 0.00 0.00 0.00 22 1018.0
20260502162547 62 300 2.0 8.0 0.00 0.00 0.00 20 1018.1
20260502161524 62 267 5.0 12.0 0.00 0.00 0.00 20 1018.2
20260502160520 61 313 5.0 9.0 0.00 0.00 0.00 21 1018.2
20260502151539 55 262 3.0 9.0 0.00 0.00 0.00 32 1018.4
20260502150555 54 289 2.0 6.0 0.00 0.00 0.00 31 1018.4
20260502130518 47 203 1.0 3.0 0.00 0.00 0.00 52 1018.6
20260502123521 39 270 0.0 3.0 0.00 0.00 0.00 64 1018.5
20260502122518 38 225 0.0 2.0 0.00 0.00 0.00 67 1018.5
20260502121530 37 0.0 0.0 0.00 0.00 0.00 67 1018.4
20260502120526 36 0.0 0.0 0.00 0.00 0.00 62 1018.4
20260502115523 35 0.0 0.0 0.00 0.00 0.00 62 1018.4
20260502114519 35 0.0 0.0 0.00 0.00 0.00 62 1018.4
20260502113516 35 0.0 0.0 0.00 0.00 0.00 62 1018.4
20260502112528 34 0.0 1.0 0.00 0.00 0.00 62 1018.3
20260502111544 34 0.0 0.0 0.00 0.00 0.00 60 1018.2
20260502110520 34 0.0 0.0 0.00 0.00 0.00 60 1018.2
20260502105516 35 0.0 0.0 0.00 0.00 0.00 59 1018.2
20260502104528 35 0.0 0.0 0.00 0.00 0.00 59 1018.2
20260502103525 35 0.0 0.0 0.00 0.00 0.00 58 1018.2
20260502102522 35 0.0 0.0 0.00 0.00 0.00 58 1018.1
20260502101518 35 0.0 0.0 0.00 0.00 0.00 58 1018.1
20260502100515 36 0.0 0.0 0.00 0.00 0.00 58 1018.0
20260502091528 37 0.0 0.0 0.00 0.00 0.00 59 1017.8
20260502090525 37 0.0 1.0 0.00 0.00 0.00 58 1017.8
20260502071518 39 0.0 0.0 0.00 0.00 0.00 54 1018.1
20260502070535 39 0.0 0.0 0.00 0.00 0.00 54 1018.1
20260502065526 39 0.0 0.0 0.00 0.00 0.00 53 1018.2
20260502064523 40 0.0 0.0 0.00 0.00 0.00 53 1018.3
20260502063520 40 0.0 0.0 0.00 0.00 0.00 52 1018.3
20260502062516 40 0.0 0.0 0.00 0.00 0.00 51 1018.3
20260502061528 40 0.0 0.0 0.00 0.00 0.00 51 1018.3
20260502060525 40 0.0 0.0 0.00 0.00 0.00 51 1018.3
20260502055521 40 0.0 0.0 0.00 0.00 0.00 50 1018.4
20260502054518 41 0.0 0.0 0.00 0.00 0.00 50 1018.3
20260502053514 41 0.0 0.0 0.00 0.00 0.00 50 1018.4
20260502052527 41 0.0 0.0 0.00 0.00 0.00 50 1018.3
20260502051523 41 0.0 0.0 0.00 0.00 0.00 50 1018.4
20260502050519 41 0.0 0.0 0.00 0.00 0.00 48 1018.3
20260502045516 42 0.0 0.0 0.00 0.00 0.00 46 1018.3
20260502044528 42 0.0 0.0 0.00 0.00 0.00 46 1018.3
20260502043525 42 0.0 0.0 0.00 0.00 0.00 45 1018.3
20260502042521 43 0.0 0.0 0.00 0.00 0.00 43 1018.3
20260502041518 43 0.0 0.0 0.00 0.00 0.00 42 1018.3
20260502040515 43 0.0 0.0 0.00 0.00 0.00 41 1018.3
20260502035526 43 0.0 0.0 0.00 0.00 0.00 40 1018.4
20260502034523 44 0.0 0.0 0.00 0.00 0.00 39 1018.4
20260502033520 44 0.0 0.0 0.00 0.00 0.00 39 1018.5
20260502032516 45 0.0 1.0 0.00 0.00 0.00 38 1018.5
20260502031528 45 0.0 0.0 0.00 0.00 0.00 37 1018.5
20260502030524 45 0.0 0.0 0.00 0.00 0.00 37 1018.4
20260502025541 46 0.0 0.0 0.00 0.00 0.00 35 1018.5
20260502024517 46 0.0 0.0 0.00 0.00 0.00 34 1018.4
20260502023529 46 0.0 0.0 0.00 0.00 0.00 33 1018.5
20260502022526 47 0.0 0.0 0.00 0.00 0.00 33 1018.5
20260502021522 48 0.0 0.0 0.00 0.00 0.00 32 1018.5
20260502020519 48 0.0 0.0 0.00 0.00 0.00 30 1018.4
20260502015516 49 0.0 0.0 0.00 0.00 0.00 30 1018.3
20260502014527 50 0.0 0.0 0.00 0.00 0.00 26 1018.2
20260502013524 51 0.0 0.0 0.00 0.00 0.00 25 1018.1
20260502012541 52 0.0 0.0 0.00 0.00 0.00 22 1018.2
20260502011517 52 0.0 1.0 0.00 0.00 0.00 23 1018.2
20260502010529 53 315 1.0 3.0 0.00 0.00 0.00 21 1018.2
20260502005546 53 28 1.0 3.0 0.00 0.00 0.00 22 1018.2
20260502004522 53 337 2.0 4.0 0.00 0.00 0.00 21 1018.2
20260502003519 54 304 2.0 7.0 0.00 0.00 0.00 21 1018.2
20260502002516 54 268 1.0 4.0 0.00 0.00 0.00 21 1018.2
20260502001528 54 14 3.0 8.0 0.00 0.00 0.00 22 1018.3
20260502000524 54 30 3.0 8.0 0.00 0.00 0.00 22 1018.2
20260501235521 55 340 3.0 8.0 0.00 0.00 0.00 23 1018.2
20260501234517 55 25 1.0 4.0 0.00 0.00 0.00 24 1018.3